{"data":{"norad_id":67963,"epoch":"2026-09-19T14:36:20.338272Z","epoch_age_seconds":140284,"freshness":"FRESH","line1":"1 67963U 26038C   26262.60856873  .00011867  00000+0  36926-3 0  9992","line2":"2 67963  97.2846 270.9120 0001358  94.7717 265.3681 15.33450255 32955","mean_motion":15.33450255,"eccentricity":0.0001358,"inclination_deg":97.2846,"raan_deg":270.912,"arg_perigee_deg":94.7717,"mean_anomaly_deg":265.3681,"bstar":0.00036926,"rev_number":3295,"period_min":93.905882848479,"perigee_km":464.59816969555,"apogee_km":466.45690898443,"semimajor_km":6843.66453934,"source":"CELESTRAK","updated_at":"2026-09-20T09:00:43.713589Z"}}